• Join FlightAware (Why Join?)
  • Login
  • US Flag GB Flag 
04:29 EST


 

Airport Tracker/Info


-or-


 

Live Flight TrackerFlight Track Log ✈ N1926A ✈ 21-Jul-2013 ✈ KECP - 41A

Flight Track Log - Related Links

Times and Time Zones

All times are in EDT time to prevent confusion due to time zone crossing. See the N1926A flight status page for this flight to view local times or setup timezone preferences in your user account.

Time Position Orientation Groundspeed Altitude Reporting Facility
EDT Latitude Longitude Course Direction KTS MPH feet Rate Location/Type
16:30 30.4206 -85.7375 358° North 162 186 7,000  Level Jacksonville Center
16:31 30.4731 -85.7269 10° North 192 221 8,900 900 Climbing Jacksonville Center
16:33 30.5400 -85.7144 North 247 284 9,100  Climbing Jacksonville Center
16:34 30.7676 -85.8019 358° North  Level FlightAware Approximate
16:34 30.6131 -85.7142 360° North 257 296 9,000  Level Jacksonville Center
16:35 30.8274 -85.8041 358° North  Level FlightAware Approximate
16:35 30.6819 -85.7211 355° North 259 298 9,100  Level Jacksonville Center
16:36 30.8872 -85.8063 358° North  Level FlightAware Approximate
16:36 30.7567 -85.7331 352° North 261 300 9,100  Level Jacksonville Center
16:37 30.8256 -85.7422 353° North 257 296 9,100  Level Jacksonville Center
16:38 30.9006 -85.7494 355° North 257 296 9,100  Level Jacksonville Center
16:39 30.9692 -85.7564 355° North 258 297 9,100  Level Jacksonville Center
16:40 31.0444 -85.7536 North 260 299 9,100  Level Jacksonville Center
16:41 31.1217 -85.7561 358° North 261 300 9,100  Level Jacksonville Center
16:42 31.1792 -85.7919 332° Northwest 244 281 9,100  Level Jacksonville Center
16:43 31.2431 -85.8350 330° Northwest 244 281 9,100  Level Jacksonville Center
16:44 31.2986 -85.8733 329° Northwest 245 282 9,100  Level Jacksonville Center
16:45 31.3606 -85.8922 345° North 257 296 9,100  Level Jacksonville Center
16:46 31.4356 -85.8997 355° North 260 299 9,100  Level Jacksonville Center
16:47 31.5108 -85.9044 357° North 259 298 9,100  Level Jacksonville Center
16:48 31.5817 -85.9019 North 264 304 9,100  Level Jacksonville Center
16:49 31.6572 -85.8922 North 264 304 9,100  Level Jacksonville Center
16:50 31.7283 -85.8822 North 264 304 9,100  Level Jacksonville Center
16:51 31.8058 -85.8700 North 264 304 9,100  Level Jacksonville Center
16:52 31.8750 -85.8553 10° North 264 304 9,100  Level Jacksonville Center
16:54 31.9819 -85.8333 North  Level FlightAware Approximate
17:01 32.3968 -85.8500 North  Level FlightAware Approximate
17:02 32.4557 -85.8556 348° North  Level FlightAware Approximate
17:03 32.5000 -85.8667 North  Level FlightAware Approximate